CST,Max TemperatureF,Mean TemperatureF,Min TemperatureF,Max Dew PointF,MeanDew PointF,Min DewpointF,Max Humidity, Mean Humidity, Min Humidity, Max Sea Level PressureIn, Mean Sea Level PressureIn, Min Sea Level PressureIn, Max VisibilityMiles, Mean VisibilityMiles, Min VisibilityMiles, Max Wind SpeedMPH, Mean Wind SpeedMPH, Max Gust SpeedMPH,PrecipitationIn, CloudCover, Events, WindDirDegrees
2012-2-1,60,44,28,28,23,19,69,46,27,30.17,30.13,30.08,10,10,10,9,5,,0.00,0,,144
2012-2-2,57,44,32,46,33,21,93,69,38,30.16,30.01,29.84,10,9,1,26,11,32,0.37,3,,143
2012-2-3,42,38,35,43,38,32,100,93,87,30.14,29.98,29.86,10,5,0,23,12,31,0.06,8,,339
2012-2-4,37,34,32,32,32,30,93,88,81,30.39,30.28,30.15,10,10,10,28,22,37,0.00,7,,340
2012-2-5,42,33,24,28,25,19,93,77,39,30.46,30.39,30.30,10,10,7,13,8,,0.00,0,,329
2012-2-6,48,38,28,30,26,23,87,80,50,30.30,30.25,30.09,10,10,10,18,6,18,0.00,0,,190
2012-2-7,33,27,21,32,27,19,100,90,80,30.45,30.33,30.13,10,7,1,33,16,40,0.00,5,,352
2012-2-8,33,26,19,28,24,18,100,86,80,30.45,30.35,30.19,10,10,10,16,6,21,0.00,5,,106
2012-2-9,32,29,26,32,29,27,100,96,93,30.18,30.13,30.07,7,3,0,15,9,,0.00,6,,46
2012-2-10,37,29,21,30,25,19,93,80,65,30.27,30.21,30.14,10,10,7,15,10,,0.06,0,,351
2012-2-11,23,20,17,14,12,10,80,71,63,30.58,30.50,30.39,10,10,10,17,11,20,0.00,6,,67
2012-2-12,30,24,17,21,15,12,86,74,59,30.48,30.26,29.98,10,9,0,29,15,32,0.00,7,,169
2012-2-13,53,40,26,36,29,23,93,75,47,29.85,29.73,29.68,10,9,3,36,21,39,0.01,2,,269
2012-2-14,53,40,28,43,34,27,93,79,54,29.84,29.79,29.71,10,8,5,17,6,21,0.00,1,,192
2012-2-15,42,37,32,36,33,28,100,84,61,30.11,29.86,29.73,10,9,2,23,12,32,0.00,3,,297
2012-2-16,50,37,24,32,27,23,93,74,37,30.31,30.22,30.15,10,10,10,10,6,,0.00,1,,164
2012-2-17,53,42,32,41,35,30,100,80,54,30.12,30.07,29.99,10,9,5,20,10,24,0.00,5,,192
2012-2-18,41,36,32,41,34,32,100,98,93,30.12,30.08,30.02,7,2,0,17,7,18,0.08,8,,26
2012-2-19,50,42,33,41,36,32,100,87,66,30.06,29.93,29.77,10,7,1,29,13,38,0.00,7,,174
2012-2-20,51,42,33,41,31,12,93,65,21,29.96,29.77,29.68,10,10,7,41,24,54,0.00,3,,244
2012-2-21,59,42,26,27,20,12,80,49,16,30.04,29.93,29.82,10,10,10,18,8,24,0.00,0,,233
2012-2-22,71,52,32,32,27,23,75,44,19,29.80,29.64,29.37,10,10,10,20,10,24,0.00,0,,228
2012-2-23,53,48,42,32,27,18,57,45,34,29.83,29.55,29.35,10,10,10,40,20,50,0.00,2,,325
2012-2-24,53,38,23,19,14,1,80,46,13,30.27,30.19,30.08,10,10,10,20,12,25,0.00,0,,311
2012-2-25,64,44,23,27,17,9,68,36,14,30.29,30.02,29.79,10,10,7,45,17,51,0.00,0,,186
2012-2-26,59,46,32,27,15,3,75,33,14,30.04,29.92,29.80,10,10,10,25,17,33,0.00,0,,61
2012-2-27,50,44,39,32,19,10,54,39,29,30.34,30.26,30.16,10,10,10,20,11,23,0.00,8,,89
2012-2-28,73,60,46,54,40,10,100,65,14,30.05,29.81,29.59,10,5,1,46,25,55,0.01,6,,189
2012-2-29,64,50,35,21,18,16,52,33,15,30.02,29.92,29.82,10,10,10,22,14,28,0.00,0,,229